RH
44 43 43 42 42 43 44 46 47 50 57 64 69 73 74 74 73 69 69 70 64 58 57 56 56 58 60 61 61 60 58 56 57 58 58 58 57 55 53 53 53 54 54 55 56 56 56 58 57 57 57 59 60 60 59 59 59 60 61 62 62 63 65
45 45 46 45 44 44 44 44 45 47 53 60 66 71 74 76 74 72 71 71 67 62 60 58 56 57 60 62 62 61 60 59 59 60 60 59 58 56 55 56 57 57 58 59 60 60 60 60 60 60 60 61 62 62 62 61 59 60 61 62 62 63 65
47 48 48 48 47 46 45 45 44 44 48 53 61 66 70 74 75 72 71 71 70 67 65 61 59 57 59 61 62 62 62 62 62 63 64 63 60 57 56 59 62 63 63 63 63 64 64 65 65 65 65 64 64 65 65 64 62 61 61 62 63 64 65
50 51 49 49 49 48 48 47 46 46 45 47 54 60 63 68 71 71 70 70 71 70 68 66 63 60 59 61 61 62 62 64 65 65 66 67 65 63 62 64 67 68 68 67 67 67 66 67 69 70 69 68 68 67 67 66 64 62 61 62 64 65 66
54 54 53 51 50 48 47 47 48 48 47 45 47 52 57 62 67 68 68 68 68 69 71 72 68 64 62 61 62 62 63 64 65 66 68 69 70 68 68 68 68 70 71 72 72 71 71 71 72 72 71 71 70 69 68 67 66 64 63 63 63 64 66
55 54 54 53 51 50 48 47 47 48 49 48 46 48 52 56 60 64 66 66 66 67 69 71 71 69 67 66 64 64 64 65 65 67 69 71 72 71 70 69 69 69 72 75 76 77 76 75 74 73 72 72 73 72 70 69 68 66 65 64 64 65 66
57 56 54 52 50 51 50 49 48 48 49 51 50 50 51 53 56 59 62 65 68 69 70 70 73 76 75 75 72 68 67 67 68 69 72 73 74 73 72 72 71 71 74 77 79 79 80 78 76 75 74 75 75 74 73 72 71 68 66 65 65 66 67
57 57 56 52 49 49 51 51 49 49 51 52 53 54 53 53 54 55 57 62 68 73 75 76 78 80 81 82 81 75 73 73 73 73 73 73 75 75 75 74 74 75 77 79 80 80 81 81 79 78 77 76 77 77 76 75 73 70 69 68 68 68 68
56 57 56 53 50 48 50 51 50 50 51 53 55 56 56 55 53 53 55 59 65 71 75 78 79 79 78 77 77 76 77 78 78 75 74 74 75 75 75 74 76 77 78 79 80 80 82 82 80 79 78 77 78 79 78 77 75 74 73 74 73 70 69
56 56 56 54 53 51 50 52 51 51 52 54 54 55 57 57 53 51 53 56 61 67 73 77 79 80 77 72 73 76 78 81 80 77 76 76 76 76 75 75 76 77 79 81 81 80 81 83 83 80 79 79 79 80 79 79 79 78 78 78 77 73 71
57 55 55 55 55 55 54 55 54 54 55 56 57 56 58 60 57 53 52 53 60 68 73 76 78 77 77 77 81 82 80 80 82 80 80 80 80 79 79 78 78 79 81 82 83 83 82 83 84 82 81 81 80 80 80 80 81 81 81 80 78 75 71
59 57 58 59 58 58 59 60 59 58 57 57 58 60 62 64 61 58 55 55 61 69 75 78 76 75 79 84 87 86 81 79 80 80 81 84 84 81 81 83 83 83 85 85 84 84 83 84 85 83 83 82 80 78 77 78 79 79 78 78 77 75 72
60 58 59 60 61 61 61 61 61 61 59 58 59 60 64 66 66 63 61 62 67 72 74 73 70 73 82 87 87 85 83 82 81 79 80 85 86 83 84 87 88 89 89 87 83 81 81 83 83 83 83 82 79 76 75 76 77 75 73 73 76 76 75
62 59 58 59 60 61 60 60 60 59 58 58 59 61 63 66 67 66 66 68 70 68 63 59 60 68 77 82 83 82 81 82 82 80 79 83 84 83 83 86 87 88 87 85 83 82 82 82 82 81 81 80 78 76 75 74 74 72 69 70 73 74 76
61 60 59 58 60 62 59 58 58 58 58 57 58 61 62 65 66 66 68 71 68 62 56 55 59 64 69 74 79 79 78 79 80 79 79 81 82 82 83 86 87 85 85 85 86 85 83 82 82 81 80 79 78 76 74 72 70 68 67 69 72 74 78
60 59 60 59 60 62 61 59 58 59 60 58 56 58 60 64 66 66 69 73 68 61 59 58 60 64 67 72 75 75 76 77 77 77 79 80 81 81 84 87 88 87 86 87 87 84 81 81 81 80 79 78 77 75 72 70 69 68 68 70 72 74 78
65 61 62 61 60 60 59 59 59 59 60 59 55 54 56 60 64 65 69 72 67 62 59 57 59 64 69 71 73 74 75 74 73 75 78 79 78 79 81 86 89 90 88 86 84 82 80 80 79 79 79 80 79 75 70 69 69 69 70 72 73 74 76
73 68 66 64 61 59 58 58 59 59 60 60 57 53 53 56 61 63 66 67 64 61 58 56 57 65 70 71 72 74 74 71 71 73 75 76 76 77 79 82 86 87 86 84 83 81 79 78 78 80 81 81 80 75 70 68 70 71 73 76 76 76 77
76 73 69 67 63 59 59 59 58 59 60 61 59 56 54 56 59 62 63 62 61 61 59 57 59 67 73 71 71 74 75 72 72 73 74 76 78 78 79 81 84 85 84 83 82 81 80 80 81 82 83 82 79 76 72 71 72 74 76 79 80 80 81
79 74 68 67 63 58 60 61 58 56 60 61 59 58 57 57 58 60 61 60 60 60 59 58 61 67 69 66 66 71 73 72 72 72 76 79 81 82 83 84 84 84 82 81 81 81 82 83 85 84 83 82 81 79 77 77 79 81 81 82 83 83 83
80 77 70 68 64 58 58 59 55 54 59 61 58 56 57 58 57 59 60 59 59 60 59 57 60 64 64 60 62 66 68 69 71 73 75 77 81 84 83 82 83 84 83 82 81 81 82 84 85 85 83 84 84 83 85 85 86 86 86 85 85 85 83
73 75 73 71 68 63 60 57 53 53 58 59 57 55 57 59 58 58 59 59 59 60 58 56 57 59 57 55 57 61 63 66 70 72 71 74 80 82 76 74 80 83 83 82 81 82 85 86 86 85 84 84 85 86 88 88 87 86 86 86 84 82 80
68 70 70 70 69 66 62 59 55 53 54 55 54 54 56 59 59 58 59 59 60 61 59 56 54 54 52 50 51 54 57 60 62 64 65 68 71 67 61 66 76 80 80 83 84 85 87 88 87 85 84 84 84 84 85 84 83 83 82 79 75 71 69
67 67 66 65 64 61 59 58 58 54 51 51 52 54 57 59 60 59 59 60 62 64 63 58 55 53 51 49 47 46 47 49 50 52 54 55 54 49 48 58 69 74 77 80 81 81 84 86 86 83 81 81 81 81 81 81 81 80 76 71 66 64 62
63 64 64 63 61 58 56 57 58 56 52 50 51 56 59 59 60 61 61 61 65 68 66 59 57 56 53 50 46 42 42 43 43 43 44 43 41 37 38 45 53 61 71 75 73 72 76 78 77 76 75 75 74 70 68 67 68 67 64 61 57 53 49
56 58 60 61 60 57 56 57 58 58 54 51 52 57 61 61 60 61 62 62 65 68 65 59 59 59 55 51 47 43 42 43 42 42 41 39 36 34 34 37 39 45 56 61 59 58 62 65 64 65 64 63 59 53 48 46 46 46 45 44 42 39 37
52 54 56 57 58 55 54 56 57 58 56 53 52 55 61 63 62 62 63 64 65 68 64 58 58 59 55 51 49 46 45 44 43 43 43 40 37 35 34 35 35 37 41 44 44 45 48 49 48 47 46 44 42 39 37 37 37 38 38 37 37 36 35
49 50 52 54 55 52 51 53 55 56 57 55 54 55 60 65 66 65 67 68 69 71 67 58 55 59 57 51 47 47 47 45 42 42 43 42 39 38 36 36 36 37 38 38 39 39 39 37 37 37 37 37 36 35 35 35 35 36 35 35 35 35 32
47 46 48 50 52 51 50 51 55 56 57 57 57 59 61 66 68 69 69 70 70 72 71 62 55 57 55 48 45 45 47 47 43 41 44 44 42 40 39 38 39 39 38 38 39 38 37 37 37 38 37 37 36 35 35 35 35 35 35 35 34 32 30
48 47 46 47 49 50 50 51 54 56 58 58 59 60 61 64 68 70 70 69 70 73 73 67 58 51 47 44 43 44 45 46 44 42 44 43 40 40 39 38 39 39 39 39 39 38 39 39 39 38 38 38 37 37 36 36 36 37 37 36 35 34 32
46 46 45 47 49 50 50 51 53 56 59 60 60 60 61 63 67 72 73 73 71 71 73 70 62 52 45 42 42 42 43 45 43 42 42 40 38 38 39 39 39 39 39 39 39 39 40 39 39 39 39 39 38 38 38 39 39 39 38 38 37 35 35
44 43 43 44 47 49 50 51 54 55 58 61 62 61 61 63 67 70 74 75 72 69 70 70 67 59 49 43 41 42 42 41 40 39 39 37 37 38 39 40 40 40 40 40 40 40 40 40 40 40 40 39 40 40 40 41 40 40 40 38 37 35 35
45 43 41 42 44 47 48 50 54 56 58 61 64 63 62 64 64 65 70 75 72 67 67 70 70 66 57 46 43 44 44 42 41 39 37 37 37 37 38 40 40 41 41 41 41 42 42 41 41 41 42 42 42 42 42 42 41 40 39 37 36 36 37
49 45 43 42 43 45 47 49 53 57 58 61 66 66 64 64 64 64 68 74 74 72 73 74 72 69 64 55 50 48 47 45 43 40 39 39 39 38 38 40 40 42 43 44 44 43 43 43 44 44 45 46 46 47 47 45 42 40 38 38 38 40 41
52 49 47 45 44 45 46 48 52 56 58 60 66 69 68 66 67 67 67 69 71 74 78 80 76 72 69 64 56 52 49 46 43 42 41 41 41 41 40 40 41 43 44 46 46 45 44 45 45 45 46 46 47 49 49 46 43 42 40 39 39 41 41
55 52 50 48 46 46 46 47 49 53 57 59 63 68 71 71 71 71 69 68 70 73 77 80 79 76 74 70 61 55 52 47 42 40 42 43 44 45 44 42 42 43 44 45 45 44 43 43 43 43 43 44 45 47 46 44 44 44 42 40 39 39 39
58 55 52 50 48 48 47 47 47 49 54 58 61 65 70 72 73 74 74 71 71 75 78 80 80 78 74 70 64 58 54 50 44 40 40 41 43 46 46 45 44 44 44 44 44 43 42 42 42 41 41 41 42 43 43 43 44 44 43 42 42 41 41
61 58 55 52 51 50 50 49 48 48 52 56 59 61 66 71 73 76 77 74 72 75 80 81 79 75 70 66 61 57 53 49 46 43 40 39 39 41 44 45 45 44 43 43 43 43 44 44 44 44 43 41 40 39 40 42 44 45 46 45 46 45 45